ZHUHAI-1 02 (CAS-4B) (42759 NORAD) Tracking and Keplerian Element Data

This shows tracking and keplerian element data for the satellite.

Feedback or suggestion? Click here.




ElementValue
Catalog42759
NameZHUHAI-1 02 (CAS-4B)
Epoch Orbit36358
Epoch Day13.18262782
Epoch Year2024
RAAN24.2038
Inclination43.0157
Eccentricity0.0010207
Argument of Perigee26.0648
Mean Anonmoly334.0715
Mean Motion15.22469925
Decay Rate0.00015747
L11 42759U 17034B 24013.18262782 .00015747 00000+0 67549-3 0 9995
L22 42759 43.0157 24.2038 0010207 26.0648 334.0715 15.22469925363587



Live tracking and technical data element details for ZHUHAI-1 02 (CAS-4B) (NORAD 42759). ZHUHAI-1 02 (CAS-4B) can be tracked NOW for your location showing map with azimuth and elevation plus other details from your city location.







IsCatalogInMostPopularTable: catalog: 42759, numindb: 959
Update: records affected: 1



GetName: 42759 ZHUHAI-1 02 (CAS-4B)

Hit Count: updated at: Fri, 01 Mar 2024 09:51:05 GMT